Погода Батамай

Погода Батамай : погода сейчас, прогноз погоды и архив. Всё, что Вы хотите узнать о погоде Батамай!

Поиск расширенной информации на нашем сайте:

Другие новости

Новости СМИ2

Главная страница сайта

Новости сайта

03.07.2017

Напоминаем, что на нашем специализированном сайте Метеоцентр.Азия вы можете получить высокодетализированные автоматические прогнозы погоды по пунктам России, СНГ и мира в авиационном формате (включающие направление и скорость ветра, видимость, явления погоды, количество и форму облачности, нижнюю и верхнюю границу облачности).


Погода Батамай - сегодня

Время (UTC), дата Ветер
(°,м/с) 
Видим.   Явления Облачность Т
(°С)
Тd
(°С)
f(%) Тe
(°С)
Pmin
(гПа)
dP
(гПа)
Po
(мм)
O2
(г/м3)
Тmin Tmax R s Состояние
почвы
00 17.10.17 290 (З) 20000 м  {снег}  10/8 300 м верхняя 
[St|Ci fib]
-11.8 -13.1 90 -16  1026.6  0.6  762  322  -12.4    0.2  равномерный
сухой снег
100% 
03 17.10.17 260 (З) 20000 м    10/8 300 м верхняя 
[St|Ci fib]
-9.6 -10.8 91 -14  1026.5  -0.1  762  319           
06 17.10.17 260 (З) 20000 м    10/6 300 м верхняя 
[St|Ci fib]
-9.3 -11.3 85 -13  1026.7  0.2  762  319           
09 17.10.17 300 (СЗ) 20000 м    9/9 300 м 
[St]
-10.5 -12.5 85 -10  1027.1  0.4  762  321           
12 17.10.17 020 (С) 20000 м    3/3 300 м 
[St]
-13.5 -14.1 95 -13  1027.5  0.2  763  325    -9.1       
15 17.10.17 020 (С) 20000 м  слаб. снег  10/0 средняя 
[As op]
-14.3 -14.9 95 -14  1027.7  0.2  763  326           
18 17.10.17 030 (СВ) 20000 м  слаб. снег  10/0 средняя, верхняя 
[Ac trans|Cs]
-14.1 -14.7 95 -14  1027.5  -0.2  763  325           
21 17.10.17 020 (С) 20000 м  слаб. снег  10/0 средняя, верхняя 
[Ac trans|Cs]
-15.6 -16.2 95 -16  1027.2  -0.3  762  327           
00 18.10.17 040 (СВ) 20000 м  слаб. снег  10/0 средняя, верхняя 
[Ac trans|Cs]
-15.3 -15.9 95 -15  1027.5  0.3  763  327  -15.9    0.2  равномерный
сухой снег
100% 
03 18.10.17 070 (В) 20000 м  слаб. снег  10/3 300 м верхняя 
[St|Cs]
-10.7 -12.7 85 -14  1026.9  -0.4  762  321           
06 18.10.17 080 (В) 10 км  слаб. снег  10/0 средняя, верхняя 
[Ac trans|Cs]
-9.1 -13 73 -13  1025.9  -1  761  319           
09 18.10.17 070 (В) 20000 м  {снег}  10/8 300 м кучево-дожд., средняя, верхняя 
[Cb cap|Ac trans|Cs]
-10.2 -13 80 -12  1025.7  -0.2  761  320           
12 18.10.17 060 (СВ) 20000 м  слаб. снег  10/0 средняя 
[As op]
-10.1 -12.9 80 -13  1025.4  -0.2  761  320    -9.1  0.3     
15 18.10.17 080 (В) 20000 м  слаб. снег  10/0 средняя 
[As op]
-10.5 -13.3 80 -12  1025.1  -0.3  761  320           
18 18.10.17 060 (СВ) 20000 м  слаб. снег  10/0 средняя 
[As op]
-11.4 -13.4 85 -15  1024.9  -0.2  761  321           
21 18.10.17 060 (СВ) 20000 м  слаб. снег  10/0 средняя 
[As op]
-12.9 -14.2 90 -16  1024.6  -0.5  760  323           
00 19.10.17 060 (СВ) 20000 м  {снег}  10/0 средняя 
[Ac As]
-13.7 -15 90 -17  1024.4  -0.2  760  324  -13.7    0.2  равномерный
сухой снег
100% 
03 19.10.17 070 (В) 20000 м    10/3 300 м средняя, верхняя 
[St|Ac trans|Cs]
-12.9 -14.9 85 -16  1024.4  760  323           
06 19.10.17 080 (В) 20000 м    10/3 300 м средняя, верхняя 
[St|Ac trans|Cs]
-12 -14.7 80 -14  1024  -0.2  760  322           
09 19.10.17 030 (СВ) 20000 м    10/0 средняя, верхняя 
[Ac trans|Cs]
-15 -17 85 -15  1024.3  0.1  760  326           
12 19.10.17 030 (СВ) 20000 м    10/0 средняя, верхняя 
[Ac trans|Cs]
-16.7 -18 90 -19  1025.3  761  328    -12       
15 19.10.17 350 (С) 20000 м    5/0 верхняя 
[Ci fib]
-20.7 -21.9 90 -21  1026.4  0.8  762  334           
18 19.10.17 140 (ЮВ) 20000 м    3/0 верхняя 
[Ci fib]
-22.7 -23.9 90 -23  1026.8  0.2  762  336           
21 19.10.17 340 (С) 20000 м    3/0 верхняя 
[Ci fib]
-21.9 -23.2 89 -22  1027.4  0.8  762  336           
00 20.10.17 350 (С) 20000 м    10/0 средняя, верхняя 
[Ac trans|Ci fib]
-19.4 -20.6 90 -20  1027.9  0.5  763  332  -22.7      равномерный
сухой снег
100% 
Время (UTC), дата Ветер
(°,м/с) 
Видим.   Явления Облачность Т
(°С)
Тd
(°С)
f(%) Тe
(°С)
Pmin
(гПа)
dP
(гПа)
Po
(мм)
O2
(г/м3)
Тmin Tmax R s Состояние
почвы

Для получения пояснительной информации подведите курсор к названию столбца.

ПОГОДА Батамай - архив

Всё, что Вы хотите узнать о погоде Батамай - удобно и подробно!

Выберите нужную дату (начиная с 1 января 2015* года) и нажмите кнопку "Найти".
Будут отображены архивные сводки погоды по пункту Батамай, начиная с указанной даты.


Отображать данные в формате CSV (для использования в таблицах Excel)


Внимание! Наш архив погоды предназначен исключительно для личного некоммерческого использования в познавательных целях. Если Вам необходимы официальные справки о состоянии погоды (для производственных, юридических, коммерческих и т.п. целей), обращайтесь в органы Росгидромета.

*Примечание: данная дата относится к архиву по метеостанциям СССР (Россия, СНГ, Балтия).
Архив по метеостанциям Зарубежной Европы и Азии (кроме Китая) хранится 10 дней, по другим регионам земного шара (Китай, Африка, Америка, Австралия, Океания) - 1 день.

Батамай - район местоположения метеостанции


Название, широта, долгота, высота метеостанции:
Батамай 63.5°ш. 129.5°д. 79 м над ур. моря [Российская Федерация]

Дополнительная информация

В oтличие oт бoльшинства пoгoдных сайтoв мы публикуем пoдрoбную метеoинфoрмацию в детальнoм прoфессиoнальнoм фoрмате.

Характеристики температуры и влажнoсти вoздуха измеряются на высoте 2 м в тени вдали oт зданий и деревьев.
Скoрoсть ветра измеряется на высoте 10 м (на урoвне рoста челoвека скoрoсть ветра ниже в 1.5-2 раза). Если метеoстанция нахoдится в гoрoде или в лесу, тo скoрoсть ветра занижена на 2-4 м/с пo сравнению с oткрытым местoм. Скoрoсть ветра над акватoриями крупных рек и oзёр, а также на вершинах хoлмoв на 2-5 м/с выше, чем в oбычных услoвиях.
Атмoсфернoе давление в разных тoчках местнoсти мoжет значительнo oтличаться oт давления на метеoстанции, в зависимoсти oт услoвий рельефа (при пoдъёме на 10 м давление пoнижается примернo на 1 мм рт.ст.).